Vorticity
nan nan nan nan nan nan nan nan nan nan nan nan nan nan nan nan nan nan nan nan nan nan
nan 7 10 9 7 8 9 13 13 11 7 9 9 8 6 7 9 8 8 9 8 nan
nan 8 9 8 8 8 9 10 11 10 8 8 8 8 6 6 10 8 7 10 8 nan
nan 13 10 8 10 8 9 11 10 10 9 8 8 7 6 8 9 7 6 9 9 nan
nan 10 7 8 10 11 8 9 9 9 9 9 9 9 8 7 8 9 7 7 8 nan
nan 10 9 8 8 9 10 9 8 9 10 9 9 8 9 9 8 8 8 9 8 nan
nan 11 10 11 11 12 9 9 11 10 8 10 10 9 9 8 8 9 10 9 9 nan
nan 16 14 13 11 12 12 11 9 9 11 10 8 9 10 9 9 8 8 8 9 nan
nan 17 14 14 14 12 11 11 11 11 10 7 15 19 6 -1 6 10 8 8 8 nan
nan 15 18 17 16 14 12 11 11 10 10 10 16 18 11 -1 2 10 9 9 7 nan
nan 13 17 16 12 13 16 13 11 12 10 9 19 20 12 2 1 10 11 10 10 nan
nan 13 17 15 12 13 13 13 12 13 14 9 18 21 11 2 2 11 11 10 10 nan
nan 12 14 13 13 12 13 14 14 15 14 13 21 23 9 -2 1 10 10 11 15 nan
nan nan nan nan nan nan nan nan nan nan nan nan nan nan nan nan nan nan nan nan nan nan
CAPE
0 0 0 0 0 0 0 0 0 0 0 0 0 0 0 0 0 0 0 0 0 0
0 0 0 0 0 0 0 0 0 0 0 0 0 0 0 0 0 0 0 0 0 0
0 0 0 0 0 0 0 0 0 0 0 0 0 0 0 0 0 0 0 0 0 0
0 0 0 0 0 0 0 0 0 0 0 0 0 0 0 0 0 0 0 0 0 0
0 0 0 0 0 0 0 0 0 0 0 0 0 0 0 0 0 0 0 0 0 0
0 0 0 0 0 0 0 0 0 0 0 0 0 0 0 0 0 0 0 0 0 0
0 0 0 0 0 0 0 0 0 0 0 0 0 0 0 0 0 0 0 0 0 0
0 0 0 0 0 0 0 0 0 0 0 0 0 0 0 0 0 0 0 0 0 0
0 0 0 0 0 0 0 0 0 0 0 0 0 0 0 0 0 0 0 0 0 0
0 0 0 0 0 0 0 0 0 0 0 0 0 0 0 0 0 0 0 0 0 0
0 0 0 0 0 0 0 0 0 0 0 0 0 0 0 0 0 0 0 0 0 0
0 0 0 0 0 0 0 0 0 0 0 0 0 0 0 0 0 0 0 0 0 0
0 0 0 0 0 0 0 0 0 0 0 0 0 0 0 0 0 0 0 0 0 0
0 0 0 0 0 0 0 0 0 0 0 0 0 0 2 6 0 0 0 0 0 0